Other Surface Observations
Issued by NWS Tucson, AZ

Home | Current Version | Previous Version | Text Only | Print | Product List | Glossary On
Versions: 1 2 3 4 5 6 7 8 9 10 11 12 13 14 15 16 17 18 19 20 21 22 23 24 25 26 27 28 29 30 31 32 33 34 35 36 37 38 39 40 41 42 43 44 45 46 47 48 49 50
000
SXUS55 KTWC 240415
OSOTWC

WEATHER ROUNDUP FOR SOUTHEAST ARIZONA
NATIONAL WEATHER SERVICE TUCSON AZ
915 PM MST WED AUG 23 2017

AZZ504>506-514-240515-
LOCATION       SKY/WX    TMP DP  RH WIND       PRES   REMARKS
TUCSON         CLOUDY    75  64  68 NW5       30.07R
DAVIS-MONTHAN  MOCLDY    73  64  73 SW6       30.06R
CHILDRENS PARK N/A      N/A N/A  74 SW6               PIMA CO DEQ
ALVERNON/22ND  N/A       74 N/A N/A SW3               PIMA CO DEQ
CHERRY/GLENN   N/A      N/A N/A N/A N/A               PIMA CO DEQ
TANGERINE      N/A       78 N/A N/A SW6               PIMA CO DEQ
CONTL RANCH    N/A       80  62  54 SW9               PIMA CO DEQ
GRANT/1ST      N/A       74  66  77 SW7               PIMA CO DEQ
CRAYCROFT/22ND N/A       73  66  78 N/A               PIMA CO DEQ
GOLFLINKS/KOLB N/A      N/A N/A N/A N/A               PIMA CO DEQ
AJO/12TH       N/A       73  66  79 SW5               PIMA CO DEQ
FAIRGROUNDS    N/A       70 N/A N/A SE17              PIMA CO DEQ
SAGUARO        N/A       74  66  76 W7G12             *SABINO CYN
SAN CARLOS     N/A       75  62  63 N3                *SAN CARLOS
GREEN VALLEY   N/A       71  65  81 SE3               PIMA CO DEQ
HORSE CAMP CYN N/A       71  59  65 E10G16            *ARAVAIPA CYN
RINCON MTNS    N/A       55  50  84 NE9G12            *NR MANNING CAMP
$$

AZZ509>511-240515-
LOCATION       SKY/WX    TMP DP  RH WIND       PRES   REMARKS
SAFFORD        CLOUDY    73  60  63 E12       30.11S
STRAY HORSE    N/A       56  50  80 NE6G14            *
TRAIL CABIN    N/A       59  55  86 E5G11             *N OF GRANVILLE
BLACK HILLS    NOT AVBL
DRY LAKE       N/A       54  53  95 E7G13             *NATANES MTNS
NOON CREEK     N/A       68  57  69 SW3G19            *PINALENO MTNS
COLUMBINE      N/A       48  48  100 CALM             *PINALENO MTNS
GUTHRIE        N/A       58  58  100 E10G24           *SW OF GUTHRIE
$$

AZZ502-503-513-240515-
LOCATION       SKY/WX    TMP DP  RH WIND       PRES   REMARKS
NOGALES        CLOUDY    70  63  78 VRB3      30.11S
SELLS          N/A       80  62  55 E11G17            *
SASABE         N/A       69  66  90 NW5               *ALTAR VLY
HOPKINS        N/A       61  51  69 E10G28            *SANTA RITA MTNS
CARR CYN       N/A       60  59  95 CALM              *W OF HEREFORD
$$

AZZ507-508-512-240515-
LOCATION       SKY/WX    TMP DP  RH WIND       PRES   REMARKS
SIERRA VISTA   CLOUDY    66  63  88 N3        30.21R
DOUGLAS        RAIN      66  63  90 NE7       30.17R FOG
EMPIRE MTNS    NOT AVBL
MULESHOE RANCH N/A       67  61  81 SE3G19            *PRESERVE
HEADQUARTERS   N/A       63  60  89 E3                *CHIRICAHUA MTNS
$$

.............................NOTES.............................
THIS IS AN AUTOMATED COLLECTIVE WITH MINIMAL QUALITY CONTROL.
PIMA CO DEQ SITES HAVE NONSTANDARD WIND SENSOR HEIGHTS.
PIMA CO DEQ SITES DO NOT REPORT WIND GUSTS.
* INDICATES WIND SENSORS LOCATED AT 20 FEET INSTEAD OF 33 FEET.
..............................KEY..............................
SKY/WX - SKY CONDITION/WEATHER
TMP    - TEMPERATURE IN FAHRENHEIT
DP     - DEWPOINT IN FAHRENHEIT
RH     - RELATIVE HUMIDITY IN PERCENT
WIND   - DIRECTION AND SPEED IN MILES PER HOUR (MPH)
VRB    - VARIABLE WIND DIRECTION
PRES   - MEAN SEA LEVEL PRESSURE IN INCHES OF MERCURY
         F - FALLING PRESSURE   R - RISING PRESSURE
         S - STEADY PRESSURE
VSB    - VISIBILITY IN MILES
HX     - HEAT INDEX IN FAHRENHEIT
WCI    - WIND CHILL INDEX IN FAHRENHEIT
N/A    - NOT AVAILABLE
AFB    - AIR FORCE BASE
         DAVIS-MONTHAN IS DAVIS-MONTHAN AIR FORCE BASE
CYN    - CANYON
MTNS   - MOUNTAINS
NCA    - NATIONAL CONSERVATION AREA
NR     - NEAR
VLY    - VALLEY
CONTL  - CONTINENTAL
PIMA CO DEQ - PIMA COUNTY DEPT OF ENVIRONMENTAL QUALITY



USA.gov is the U.S. government's official web portal to all federal, state and local government web resources and services.